Location: Capannuccia
(43.7000°N, 11.3000°E)
Time: 10:55:06
(UTC+00:00)

Cosmos 2221 - Pass Details

Date: 07 June 2020
Orbit: 594 x 615 km, 82.5° (Epoch: 07 July)

Event Time Altitude Azimuth Distance (km) Brightness Sun altitude
Rises 00:30:29 0° 360° (N) 2,881 7.3 -21.2°
Reaches altitude 10° 00:32:53 10° 10° (N) 1,975 6.3 -21.1°
Maximum altitude 00:36:52 34° 75° (ENE) 1,023 3.9 -20.8°
Enters shadow 00:39:27 18° 130° (SE) 1,500 4.3 -20.7°
